Regional Weather Roundup
Issued by NWS Raleigh/Durham, NC

Home | Current Version | Previous Version | Text Only | Print | Product List | Glossary On
Versions: 1 2 3 4 5 6 7 8 9 10 11 12 13 14 15 16 17 18 19 20 21 22 23 24 25 26 27 28 29 30 31 32 33 34 35 36 37 38 39 40 41 42 43 44 45 46 47 48 49 50
000
ASUS42 KRAH 201910
RWRRAH
NORTH CAROLINA WEATHER ROUNDUP
NATIONAL WEATHER SERVICE RALEIGH NC
200 PM EST MON FEB 20 2017

NOTE: "FAIR" INDICATES FEW OR NO CLOUDS BELOW 12,000 FEET WITH NO
SIGNIFICANT WEATHER AND/OR OBSTRUCTIONS TO VISIBILITY.

NCZ001-053-055-056-065-067-202000-
WESTERN NORTH CAROLINA

CITY           SKY/WX    TMP DP  RH WIND       PRES   REMARKS
ASHEVILLE      MOSUNNY   69  27  20 S6        30.18F
JEFFERSON      MOSUNNY   64  21  19 SE5       30.19F
MORGANTON      SUNNY     71  22  15 CALM      30.21F
HICKORY        SUNNY     69  31  24 CALM      30.16F
RUTHERFORDTON  MOSUNNY   72  36  26 SW5       30.17F
MOUNT AIRY     SUNNY     70  32  24 W3        30.19F
BOONE          CLOUDY    64  25  23 CALM      30.20F
$$

NCZ021-022-025-041-071-084-088-202000-
CENTRAL NORTH CAROLINA

CITY           SKY/WX    TMP DP  RH WIND       PRES   REMARKS
CHARLOTTE      MOSUNNY   71  38  29 VRB5      30.17F
GREENSBORO     PTSUNNY   70  37  29 NE5       30.17F
WINSTON-SALEM  SUNNY     70  34  26 W6        30.18F
RALEIGH-DURHAM PTSUNNY   71  32  23 CALM      30.18F
FORT BRAGG     SUNNY     72  37  28 E5        30.15F
FAYETTEVILLE   SUNNY     73  39  29 E7        30.16F
BURLINGTON     SUNNY     71  37  28 CALM      30.16F
LAURINBURG     SUNNY     73  42  32 E8        30.17F
$$

NCZ011-015-027-028-043-044-047-080-103-202000-
NORTHEASTERN NORTH CAROLINA

CITY           SKY/WX    TMP DP  RH WIND       PRES   REMARKS
ROCKY MT-WILSO SUNNY     70  37  29 VRB7      30.17F
GREENVILLE     SUNNY     70  32  24 NE7       30.18F
WASHINGTON     SUNNY     69  35  28 NE6       30.17F
ELIZABETH CITY SUNNY     64  39  39 NE8       30.18F
MANTEO         SUNNY     57  41  55 N12       30.19F
CAPE HATTERAS  SUNNY     60  46  59 N8G20     30.17F
$$

NCZ078-087-090-091-093-098-101-202000-
SOUTHEASTERN NORTH CAROLINA

CITY           SKY/WX    TMP DP  RH WIND       PRES   REMARKS
LUMBERTON      SUNNY     73  43  33 E8        30.15F
GOLDSBORO      SUNNY     72  31  22 N5        30.15F
KINSTON        SUNNY     72  30  21 NE8       30.17F
KENANSVILLE    NOT AVBL
NEW BERN       SUNNY     70  41  34 NE8       30.16F
CHERRY POINT   SUNNY     69  45  41 NE10      30.17F
BEAUFORT       SUNNY     68  42  38 NE14G22   30.16F
JACKSONVILLE   SUNNY     73  39  29 N8        30.15S
WILMINGTON     SUNNY     70  45  40 SE8       30.15S
$$




USA.gov is the U.S. government's official web portal to all federal, state and local government web resources and services.